Location: Newark
(13.6797°N, 8.5297°E)
Time: 16:35:13
(UTC+00:00)

Altair - Pass Details

Date: 30 January 2020
Orbit: 1502 x 1682 km, 47.2° (Epoch: 22 February)

Event Time Altitude Azimuth Distance (km) Brightness Sun altitude
Rises 07:44:00 0° 289° (WNW) 4,854 9.5 24.1°
Reaches altitude 10° 07:51:40 10° 326° (NNW) 3,910 9.2 25.7°
Maximum altitude 07:53:16 10° 336° (NNW) 3,883 9.3 26.0°
Drops below altitude 10° 07:54:51 10° 345° (NNW) 3,923 9.3 26.4°
Sets 08:02:43 0° 23° (NNE) 4,928 10.1 28.1°
